Location: Newark
(27.9675°N, 86.8869°E)
Time: 15:20:19
(UTC+00:00)

ISS - Pass Details

Date: 18 September 2019
Orbit: 411 x 421 km, 51.6° (Epoch: 14 October)

Event Time Altitude Azimuth Distance (km) Brightness Sun altitude
Rises 13:05:44 0° 219° (SW) 2,326 0.5 -12.1°
Reaches altitude 10° 13:07:49 10° 218° (SW) 1,467 -0.6 -12.6°
Maximum altitude 13:11:06 78° 132° (SE) 421 -3.9 -13.3°
Enters shadow 13:13:55 14° 46° (NE) 1,274 -1.7 -13.9°
